WMT5TW EKCH-EDDH

Flight info

Callsign WMT5TW
Flight time 0h 26m
Altitude 24000
Route NEXEN T503 MICOS N850 BOGMU BOGMU3P
Aircraft A320/M-SDE3FGHIRWY/LB1

Departure

Time 2026-04-23 07:38
Airport Copenhagen Kastrup Airport (EKCH)

Arrival

Time 2026-04-23 08:05
Airport Hamburg Helmut Schmidt Airport (EDDH)
Time Latitude Longitude Altitude Speed Heading
2026-04-23 07:20 55.62726 12.65331 19 ft 0 kts 21°
2026-04-23 07:29 55.62725 12.65331 19 ft 1 kts 21°
2026-04-23 07:29 55.62709 12.65319 19 ft 3 kts 21°
2026-04-23 07:29 55.62692 12.65307 19 ft 3 kts 27°
2026-04-23 07:29 55.62678 12.65291 20 ft 2 kts 51°
2026-04-23 07:30 55.62670 12.65269 19 ft 2 kts 86°
2026-04-23 07:30 55.62670 12.65249 19 ft 0 kts 102°
2026-04-23 07:31 55.62669 12.65255 20 ft 2 kts 103°
2026-04-23 07:32 55.62662 12.65287 19 ft 4 kts 118°
2026-04-23 07:32 55.62638 12.65312 19 ft 4 kts 180°
2026-04-23 07:32 55.62601 12.65318 19 ft 6 kts 173°
2026-04-23 07:32 55.62551 12.65323 19 ft 8 kts 180°
2026-04-23 07:33 55.62486 12.65320 19 ft 11 kts 178°
2026-04-23 07:33 55.62408 12.65328 19 ft 12 kts 178°
2026-04-23 07:33 55.62322 12.65329 20 ft 13 kts 188°
2026-04-23 07:33 55.62268 12.65212 22 ft 13 kts 216°
2026-04-23 07:34 55.62182 12.65150 25 ft 14 kts 210°
2026-04-23 07:34 55.62095 12.65050 24 ft 17 kts 214°
2026-04-23 07:34 55.61984 12.64918 22 ft 21 kts 211°
2026-04-23 07:34 55.61844 12.64777 18 ft 24 kts 209°
2026-04-23 07:35 55.61706 12.64607 22 ft 25 kts 216°
2026-04-23 07:35 55.61573 12.64451 23 ft 22 kts 214°
2026-04-23 07:35 55.61440 12.64292 22 ft 25 kts 213°
2026-04-23 07:35 55.61284 12.64117 20 ft 28 kts 213°
2026-04-23 07:36 55.61134 12.63942 20 ft 21 kts 213°
2026-04-23 07:36 55.61009 12.63796 22 ft 22 kts 213°
2026-04-23 07:36 55.60878 12.63649 21 ft 22 kts 213°
2026-04-23 07:36 55.60762 12.63642 22 ft 18 kts 141°
2026-04-23 07:37 55.60711 12.63743 22 ft 9 kts 130°
2026-04-23 07:37 55.60684 12.63853 23 ft 11 kts 83°
2026-04-23 07:37 55.60758 12.64000 24 ft 31 kts 41°
2026-04-23 07:37 55.61110 12.64518 19 ft 97 kts 41°
2026-04-23 07:38 55.61750 12.65504 19 ft 144 kts 41°
2026-04-23 07:38 55.62586 12.66826 198 ft 169 kts 39°
2026-04-23 07:38 55.63491 12.68195 823 ft 174 kts 36°
2026-04-23 07:38 55.64442 12.69562 1456 ft 179 kts 36°
2026-04-23 07:39 55.65449 12.71021 1828 ft 195 kts 37°
2026-04-23 07:39 55.66530 12.72665 2164 ft 214 kts 37°
2026-04-23 07:39 55.67676 12.74416 2872 ft 217 kts 37°
2026-04-23 07:39 55.68813 12.76166 3756 ft 215 kts 39°
2026-04-23 07:40 55.69721 12.78320 4640 ft 224 kts 58°
2026-04-23 07:40 55.70144 12.81031 5478 ft 235 kts 79°
2026-04-23 07:40 55.69948 12.83977 6312 ft 249 kts 103°
2026-04-23 07:40 55.69055 12.86689 7100 ft 263 kts 129°
2026-04-23 07:41 55.67532 12.88563 7843 ft 273 kts 156°
2026-04-23 07:41 55.65704 12.89538 8630 ft 277 kts 174°
2026-04-23 07:41 55.63795 12.89277 9421 ft 276 kts 201°
2026-04-23 07:41 55.62133 12.87667 10216 ft 271 kts 224°
2026-04-23 07:42 55.60689 12.85519 10940 ft 273 kts 225°
2026-04-23 07:42 55.59234 12.83337 11656 ft 276 kts 225°
2026-04-23 07:42 55.57759 12.81128 12351 ft 280 kts 225°
2026-04-23 07:42 55.56264 12.78898 13035 ft 283 kts 225°
2026-04-23 07:43 55.54746 12.76644 13731 ft 287 kts 225°
2026-04-23 07:43 55.53205 12.74366 14376 ft 291 kts 224°
2026-04-23 07:43 55.51644 12.72061 14974 ft 295 kts 224°
2026-04-23 07:43 55.50055 12.69724 15560 ft 299 kts 224°
2026-04-23 07:44 55.48446 12.67362 16153 ft 303 kts 224°
2026-04-23 07:44 55.46818 12.64973 16772 ft 305 kts 224°
2026-04-23 07:44 55.45186 12.62580 17443 ft 306 kts 224°
2026-04-23 07:44 55.43543 12.60164 18044 ft 309 kts 224°
2026-04-23 07:45 55.41883 12.57719 18608 ft 313 kts 224°
2026-04-23 07:45 55.40199 12.55245 19076 ft 318 kts 224°
2026-04-23 07:45 55.38497 12.52754 19206 ft 318 kts 223°
2026-04-23 07:45 55.36795 12.50272 19296 ft 322 kts 223°
2026-04-23 07:46 55.35003 12.47645 19252 ft 347 kts 223°
2026-04-23 07:46 55.33087 12.44835 19247 ft 370 kts 223°
2026-04-23 07:46 55.31054 12.41862 19247 ft 391 kts 223°
2026-04-23 07:46 55.28923 12.38762 19246 ft 402 kts 222°
2026-04-23 07:47 55.26755 12.35629 19251 ft 405 kts 222°
2026-04-23 07:47 55.24578 12.32491 19250 ft 406 kts 222°
2026-04-23 07:47 55.22397 12.29348 19255 ft 406 kts 222°
2026-04-23 07:47 55.20218 12.26209 19253 ft 406 kts 222°
2026-04-23 07:48 55.18040 12.23076 19251 ft 405 kts 222°
2026-04-23 07:48 55.15861 12.19943 19253 ft 405 kts 222°
2026-04-23 07:48 55.13687 12.16811 19255 ft 405 kts 222°
2026-04-23 07:48 55.11512 12.13677 19257 ft 405 kts 222°
2026-04-23 07:49 55.07730 12.08243 19265 ft 405 kts 222°
2026-04-23 07:49 55.03372 12.02017 19270 ft 405 kts 221°
2026-04-23 07:49 54.99007 11.95812 19281 ft 405 kts 221°
2026-04-23 07:49 54.94639 11.89613 19283 ft 404 kts 221°
2026-04-23 07:50 54.90281 11.83431 19290 ft 404 kts 221°
2026-04-23 07:50 54.85920 11.77260 19293 ft 404 kts 221°
2026-04-23 07:50 54.81566 11.71126 19295 ft 403 kts 221°
2026-04-23 07:50 54.77205 11.64998 19298 ft 403 kts 221°
2026-04-23 07:51 54.72851 11.58887 19304 ft 402 kts 221°
2026-04-23 07:51 54.68502 11.52805 19306 ft 402 kts 220°
2026-04-23 07:51 54.64149 11.46753 19303 ft 401 kts 220°
2026-04-23 07:51 54.59794 11.40707 19306 ft 401 kts 220°
2026-04-23 07:52 54.55451 11.34691 19309 ft 400 kts 220°
2026-04-23 07:52 54.51116 11.28704 19315 ft 400 kts 220°
2026-04-23 07:52 54.46775 11.22729 19316 ft 399 kts 220°
2026-04-23 07:52 54.42439 11.16774 19316 ft 399 kts 220°
2026-04-23 07:53 54.38109 11.10834 19317 ft 398 kts 220°
2026-04-23 07:53 54.33787 11.04935 19319 ft 398 kts 220°
2026-04-23 07:53 54.29684 10.98629 19313 ft 395 kts 233°
2026-04-23 07:53 54.26363 10.91183 19314 ft 394 kts 234°
2026-04-23 07:54 54.23024 10.83789 19179 ft 388 kts 234°
2026-04-23 07:54 54.19756 10.76647 17661 ft 377 kts 230°
2026-04-23 07:54 54.15408 10.71961 15994 ft 370 kts 203°
2026-04-23 07:54 54.10685 10.68653 14381 ft 362 kts 204°
2026-04-23 07:55 54.06091 10.65388 12728 ft 354 kts 205°
2026-04-23 07:55 54.01592 10.62205 11342 ft 341 kts 205°
2026-04-23 07:55 53.97424 10.59276 10639 ft 315 kts 205°
2026-04-23 07:55 53.93995 10.56851 9254 ft 322 kts 205°
2026-04-23 07:56 53.91937 10.55384 8612 ft 317 kts 208°
2026-04-23 07:56 53.90119 10.53467 8210 ft 300 kts 223°
2026-04-23 07:56 53.88476 10.51412 7482 ft 287 kts 223°
2026-04-23 07:56 53.87073 10.49101 6620 ft 275 kts 240°
2026-04-23 07:57 53.86185 10.46374 6071 ft 253 kts 245°
2026-04-23 07:57 53.85194 10.44047 5775 ft 237 kts 236°
2026-04-23 07:57 53.84146 10.41948 5371 ft 231 kts 236°
2026-04-23 07:57 53.83131 10.39886 5220 ft 223 kts 236°
2026-04-23 07:58 53.82162 10.37896 5098 ft 215 kts 237°
2026-04-23 07:58 53.81227 10.35970 5016 ft 210 kts 237°
2026-04-23 07:58 53.80299 10.34058 5037 ft 210 kts 237°
2026-04-23 07:58 53.79377 10.32167 4941 ft 202 kts 237°
2026-04-23 07:59 53.78794 10.30972 4767 ft 196 kts 237°
2026-04-23 07:59 53.77946 10.29233 4531 ft 187 kts 237°
2026-04-23 07:59 53.77129 10.27555 4299 ft 182 kts 237°
2026-04-23 07:59 53.76336 10.25931 4054 ft 175 kts 237°
2026-04-23 08:00 53.75577 10.24376 3825 ft 169 kts 237°
2026-04-23 08:00 53.74838 10.22862 3607 ft 167 kts 238°
2026-04-23 08:00 53.74098 10.21347 3385 ft 167 kts 237°
2026-04-23 08:00 53.73359 10.19835 3156 ft 166 kts 237°
2026-04-23 08:01 53.72634 10.18354 2929 ft 162 kts 237°
2026-04-23 08:01 53.71925 10.16907 2703 ft 158 kts 237°
2026-04-23 08:01 53.71230 10.15490 2504 ft 155 kts 238°
2026-04-23 08:01 53.70569 10.14144 2301 ft 146 kts 238°
2026-04-23 08:02 53.69926 10.12833 2101 ft 143 kts 238°
2026-04-23 08:02 53.69298 10.11552 1896 ft 142 kts 238°
2026-04-23 08:02 53.68669 10.10269 1698 ft 141 kts 238°
2026-04-23 08:02 53.68050 10.09010 1503 ft 138 kts 238°
2026-04-23 08:03 53.67442 10.07774 1313 ft 135 kts 238°
2026-04-23 08:03 53.66843 10.06555 1127 ft 135 kts 237°
2026-04-23 08:03 53.66246 10.05342 948 ft 134 kts 236°
2026-04-23 08:03 53.65662 10.04139 772 ft 131 kts 235°
2026-04-23 08:04 53.65069 10.02971 573 ft 131 kts 236°
2026-04-23 08:04 53.64489 10.01795 378 ft 132 kts 236°
2026-04-23 08:04 53.63910 10.00601 196 ft 131 kts 234°
2026-04-23 08:04 53.63340 9.99449 57 ft 119 kts 234°
2026-04-23 08:05 53.62926 9.98590 47 ft 43 kts 229°
2026-04-23 08:05 53.62854 9.98509 48 ft 15 kts 200°
2026-04-23 08:05 53.62743 9.98473 47 ft 2 kts 182°
2026-04-23 08:05 53.62727 9.98474 46 ft 7 kts 179°
2026-04-23 08:06 53.62700 9.98476 44 ft 3 kts 174°
2026-04-23 08:06 53.62659 9.98498 44 ft 9 kts 156°
2026-04-23 08:06 53.62591 9.98553 46 ft 12 kts 153°
2026-04-23 08:06 53.62520 9.98648 46 ft 14 kts 111°
2026-04-23 08:07 53.62531 9.98807 46 ft 14 kts 81°
2026-04-23 08:07 53.62549 9.98975 46 ft 16 kts 79°
2026-04-23 08:07 53.62570 9.99166 45 ft 18 kts 79°
2026-04-23 08:07 53.62595 9.99383 42 ft 20 kts 81°
2026-04-23 08:08 53.62624 9.99621 44 ft 18 kts 80°
2026-04-23 08:08 53.62660 9.99817 44 ft 17 kts 47°
2026-04-23 08:08 53.62760 9.99919 44 ft 17 kts 28°
2026-04-23 08:08 53.62863 10.00032 44 ft 19 kts 38°
2026-04-23 08:09 53.62897 10.00186 45 ft 7 kts 123°